User: anonymous   Login
Location: Owatonna
(44.0840°N, 93.2260°W)
Time: 18:32:16
(UTC-05:00)
Language:

Cosmos 1500 Rocket - Orbit

View from above orbital plane
View from above orbital plane
View from above satellite
View from above satellite

Ground track
Ground track

The orbit data is extracted from the following two-line orbital elements,

1 14373U 83099B   15241.17895578  .00000208  00000-0  22310-4 0  9992
2 14373 082.5426 139.4119 0018977 235.6651 235.9787 14.83493275723318
Epoch (UTC): 29 August 2015 04:17:41
Eccentricity: 0.0018977
inclination: 82.5426°
perigee height: 605 km
apogee height: 631 km
right ascension of ascending node: 139.4119°
argument of perigee: 235.6651°
revolutions per day: 14.83493275
mean anomaly at epoch: 235.9787°
orbit number at epoch: 72331

The dashed part of the orbit path shows where the satellite is in the earth's shadow,  

DLR